weather.gov     
National Weather Service

Terminal Aerodrome Forecast
NWS Homepage
This page is being discontinued on March 12, 2014.
The same data is available at this site. Please update your bookmarks.
Thank you, and we apologize for the inconvenience.
Please send an email to SR-SRH.Webmaster@noaa.gov with any concerns.


Current Version
Previous Version:    01  02  03  04  05  06  07  08  09  10  11  12  13  14  15  16  17  18  19  20  21  22  23  24  25  26  27  28  29  30  
   31  32  33  34  35  36  37  
[Printable]
929
FTUS44 KCRP 301100
TAFALI
TAF
KALI 301130Z 3012/0112 36004KT P6SM VCSH SCT025
     FM301700 07009KT P6SM VCTS BKN035CB
     FM302300 09012KT P6SM SCT040
     FM010300 12007KT P6SM SCT015
     FM010700 12004KT 5SM BR SCT012
      TEMPO 0110/0112 2SM BR BKN012=


U.S. Dept. of Commerce
NOAA National Weather Service
1325 East West Highway
Silver Spring, MD 20910
E-mail: w-nws.webmaster@noaa.gov
Page last modified: May 16, 2007
NATIONAL WEATHER SERVICE: for Safety, for Work, for Fun - FOR LIFE